User: anonymous   Login
Location: Unspecified
(0.0000°N, 0.0000°E)
Time: 07:57:40
(UTC+00:00)
Language:

GALILEO 11 (268) - Orbit

View from above orbital plane
View from above orbital plane
View from above satellite
View from above satellite

Ground track
Ground track

The orbit data is extracted from the following two-line orbital elements,

1 41175U 15079B   17142.23290258 +.00000063 +00000-0 +00000-0 0  9995
2 41175 054.9184 192.4378 0005282 276.4619 083.5709 01.70474011008888
Epoch (UTC): 22 May 2017 05:35:22
Eccentricity: 0.0005282
inclination: 54.9184°
perigee height: 23206 km
apogee height: 23237 km
right ascension of ascending node: 192.4378°
argument of perigee: 276.4619°
revolutions per day: 1.70474011
mean anomaly at epoch: 83.5709°
orbit number at epoch: 888

The dashed part of the orbit path shows where the satellite is in the earth's shadow,  

DLR